Location: ???????
(55.8665°N, 38.4438°E)
Time: 20:58:51
(UTC+00:00)

Daily predictions for brighter satellites

Satellite Brightness Start Highest point End
(mag) Time Altitude Azimuth Time Altitude Azimuth Time Altitude Azimuth
Meteor 2-2 Rocket 4.5 18:57:55 10° NNW 19:03:47 68° ENE 19:09:30 10° SSE
SL-16 R/B 3.4 18:59:26 10° WSW 19:04:55 48° NW 19:10:27 10° NNE
Cosmos 2056 Rocket 4.4 19:00:21 10° NNW 19:05:34 45° NE 19:10:46 10° SE
Cosmos 1315 Rocket 3.1 19:04:56 10° NNW 19:09:01 69° W 19:13:07 10° S
USA 267 3.4 19:03:43 10° ESE 19:10:16 69° SSW 19:16:50 10° WNW
Cosmos 2278 Rocket 2.3 19:05:08 10° NW 19:10:52 85° WSW 19:16:33 10° SSE
Cosmos 1844 Rocket 4.4 19:08:09 10° NW 19:12:40 26° WSW 19:17:08 10° SSW
ATLAS 5 CENTAUR R/B 1.6 19:08:42 10° SW 19:12:59 76° SE 19:17:56 10° NE
Cosmos 1943 Rocket 3.7 19:09:19 10° NNW 19:14:24 32° NE 19:19:27 10° E
Cosmos 1709 Rocket 4.3 19:09:04 10° SSW 19:15:23 76° WNW 19:21:49 10° N
USA 81 4.1 19:10:29 10° S 19:15:46 88° E 19:21:06 10° N
CARTOSAT-1 4.3 19:13:57 10° S 19:18:09 50° W 19:22:22 10° NNW
Cosmos 1892 3.7 19:16:52 10° SSE 19:20:13 31° E 19:23:37 10° NNE
Meteor 1-11 4.4 19:18:27 10° SSW 19:24:07 81° WNW 19:29:53 10° NNE
MTI 4.4 19:23:43 10° NNE 19:26:39 37° E 19:29:32 10° S
SL-16 R/B 4.1 19:24:04 10° SE 19:26:43 14° E 19:29:23 10° ENE
Cosmos 2184 Rocket 4.1 19:25:20 10° S 19:31:30 66° E 19:37:46 10° NNE
Cosmos 1408 3.8 19:29:22 10° SSE 19:32:23 26° E 19:35:24 10° NNE
Cosmos 2221 2.7 19:29:17 10° NNW 19:33:41 73° W 19:38:02 10° S
In-Cosmos 22 Rocket 4.3 19:33:10 10° S 19:38:20 55° E 19:43:33 10° NNE
Lacrosse 5 rocket 1.5 19:36:04 10° W 19:40:16 77° N 19:44:13 10° E
Resurs 01 Rocket 4.5 19:39:20 10° W 19:40:17 11° W 19:41:15 10° WNW
NOSS 3-4 (A) 3.9 19:34:16 10° NW 19:41:01 70° SW 19:48:31 10° SE
NOSS 3-4 (C) 3.9 19:34:23 10° NW 19:41:08 70° SW 19:48:39 10° SE
Terra 2.5 19:36:51 10° S 19:41:29 50° W 19:46:08 10° NNW
Cosmos 923 Rocket 4.4 19:37:05 10° S 19:42:06 47° ESE 19:47:11 10° NE
TSX-5 4.4 19:40:54 10° NW 19:44:06 39° WSW 19:47:45 11° S
Cosmos 2322 Rocket 4.2 19:46:46 10° W 19:51:50 33° NW 19:56:57 10° NNE
NOSS 3-3 (A) 4.0 19:48:22 10° SW 19:54:21 70° SE 20:01:13 10° NE
NOSS 3-3 (C) 4.0 19:48:28 10° SW 19:54:28 70° SE 20:01:20 10° NE
Cosmos 2058 2.9 19:51:37 10° S 19:55:44 70° E 19:59:52 10° NNE
Cosmos 1624 Rocket 4.0 19:50:43 10° NNW 19:56:00 90° NE 20:00:54 12° SSE
Cosmos 2369 Rocket 3.3 19:57:14 10° NNW 20:02:32 40° NE 20:07:48 10° ESE
Cosmos 2344 4.1 19:56:27 10° S 20:03:10 38° ESE 20:10:30 10° NE
Nadezhda 3 Rocket 4.2 19:58:00 10° NNW 20:04:24 79° W 20:10:35 11° S
Meteor 2-17 Rocket 4.5 20:00:21 10° S 20:06:25 89° W 20:12:31 10° NNE
Cosmos 1980 3.9 20:01:10 10° SSW 20:06:40 56° ESE 20:12:12 10° NE
JB-3 4.3 20:04:04 10° NNE 20:07:56 79° WNW 20:11:46 10° SSW
Cosmos 1825 2.8 20:05:10 13° SSE 20:08:14 42° E 20:11:51 10° NNE
COSMOS 2455 3.2 20:02:27 10° NW 20:08:31 67° NE 20:14:32 10° SE
ATLAS 2AS CENTAUR R/B 3.1 20:01:20 10° NW 20:08:50 58° SW 20:15:15 12° SSE
Cosmos 2154 Rocket 4.0 20:05:19 10° S 20:11:30 81° E 20:17:46 10° NNE
COSMOS 2428 3.0 20:08:15 10° SW 20:13:55 74° NW 20:19:39 10° NNE
Aureole 2 Rocket 1.8 20:11:50 10° NNW 20:14:40 86° WSW 20:16:51 16° SSE
Cosmos 1076 Rocket 3.5 20:10:54 10° SSW 20:15:11 88° W 20:19:30 10° NNE
Cosmos 2341 Rocket 4.3 20:10:22 12° SSE 20:16:00 55° E 20:22:03 10° NNE
Thor Agena Rocket 3.7 20:11:10 10° NNE 20:16:15 59° ESE 20:20:54 12° S
Cosmos 2074 Rocket 4.3 20:11:30 10° SSW 20:17:41 66° WNW 20:23:54 10° N
USA 215 3.3 20:11:38 10° ENE 20:18:08 60° SSE 20:24:36 10° SW
Cosmos 1933 3.9 20:16:36 10° N 20:20:33 50° ENE 20:23:55 14° SSE
Cosmos 2151 3.3 20:19:09 14° S 20:22:44 55° E 20:26:56 10° NNE
Cosmos 1371 Rocket 4.4 20:18:52 10° NW 20:23:59 54° WSW 20:28:31 13° S
Cosmos 2237 Rocket 2.2 20:19:02 10° SSW 20:24:42 69° ESE 20:30:23 10° NE
Helios 1A 4.0 20:20:56 10° SE 20:24:46 38° ENE 20:28:38 10° N
Cosmos 2219 Rocket 2.8 20:20:20 10° SW 20:25:51 59° NW 20:31:27 10° NNE
Cosmos 2360 Rocket 4.1 20:24:00 10° W 20:29:05 33° NW 20:34:12 10° NNE
Genesis I 3.6 20:26:13 10° SSW 20:29:55 43° SE 20:33:39 10° ENE
SL-8 Rocket 4.3 20:26:25 13° SSE 20:31:44 54° E 20:37:43 10° NNE
Spot 4 4.1 20:27:43 13° S 20:31:53 61° WSW 20:36:38 10° NNW
CZ-4C R/B 3.1 20:25:52 10° NW 20:32:28 71° NNE 20:40:21 10° ESE
GEOS 3 Rocket 4.2 20:29:03 10° NE 20:34:23 65° NNW 20:39:44 10° WSW
Cosmos 158 Rocket 3.8 20:30:11 10° SSW 20:35:03 80° ESE 20:40:02 10° NNE
Cosmos 1151 Rocket 3.1 20:31:01 10° N 20:35:24 75° ENE 20:38:54 15° SSE
SL-4 R/B 1.7 20:35:29 17° ESE 20:36:39 31° ENE 20:38:33 10° N
Cosmos 2112 Rocket 4.1 20:32:42 10° SSW 20:38:03 80° ESE 20:43:27 10° NNE
Cosmos 1782 3.9 20:34:47 10° N 20:38:29 36° ENE 20:41:53 12° SE
Cosmos 1727 Rocket 4.4 20:32:53 10° N 20:39:02 58° ENE 20:44:44 12° SSE
Cosmos 1420 Rocket 4.1 20:33:53 10° NNW 20:39:10 78° WSW 20:43:41 14° SSE
Cosmos 332 Rocket 3.9 20:35:00 10° NNW 20:39:50 78° ENE 20:44:07 13° SSE
Cosmos 2333 Rocket 3.2 20:34:21 10° WSW 20:39:54 49° NW 20:45:30 10° NNE
Cosmos 1408 Rocket 4.5 20:37:58 14° SSE 20:41:14 37° E 20:45:19 10° NNE
ALOS 2 2.6 20:41:33 15° SSE 20:45:08 80° WSW 20:49:34 10° NNW
BREEZE-M DEB (TANK) 4.3 20:43:57 13° SSW 20:46:58 29° SE 20:55:42 10° E
Cosmos 1346 Rocket 4.2 20:44:58 14° SE 20:47:37 26° E 20:50:57 10° NE
NOSS 0 Rocket 4.1 20:41:34 10° SW 20:47:44 81° NW 20:53:58 10° NE
Cosmos 2056 Rocket 4.3 20:42:38 10° NW 20:47:44 43° WSW 20:52:07 14° S
EO 1 Del DPAF 3.3 20:47:47 10° NNE 20:51:34 76° WNW 20:54:55 13° SSW
GP-B 3.1 20:47:35 10° N 20:52:04 83° E 20:55:38 16° S
USA 267 4.2 20:49:19 14° S 20:54:03 31° SW 20:59:48 10° WNW
Cosmos 2278 Rocket 4.0 20:50:10 10° NW 20:54:11 20° W 20:58:12 10° SSW
Cosmos 1892 4.3 20:52:30 10° SW 20:55:54 31° WNW 20:59:22 10° N
Cosmos 2297 4.1 20:51:51 10° NW 20:57:25 51° WSW 21:01:57 15° S
ATLAS 5 CENTAUR R/B 3.2 20:53:39 10° W 20:58:00 42° NNW 21:03:02 10° NE
Cosmos 1943 Rocket 2.2 20:53:05 10° NW 20:58:49 85° SW 21:04:00 13° SSE
Cosmos 1606 3.2 20:55:41 10° NNW 20:59:29 54° W 21:02:25 16° S
RESURS DK-1 2.9 20:56:37 10° NNW 21:00:43 56° NE 21:04:47 10° SE
Cosmos 1633 3.7 20:58:47 15° SSE 21:01:12 31° E 21:04:27 10° NNE
Gbstr 26 Del rocket 4.3 21:01:50 16° SSE 21:02:31 17° SE 21:05:11 10° ESE
Cosmos 44 3.4 21:02:28 14° SSW 21:05:56 46° SE 21:10:15 10° NE
Cosmos 1680 Rocket 4.0 21:00:56 10° SW 21:06:13 62° WNW 21:11:32 10° NNE
Cosmos 1408 3.9 21:04:02 10° SW 21:07:19 33° WNW 21:10:37 10° N
Cosmos 371 Rocket 3.7 21:04:20 10° NW 21:09:03 51° WSW 21:12:42 16° S
SL-16 R/B 2.3 21:04:44 13° SSW 21:09:43 61° ESE 21:15:21 10° NE
APEX 3.2 21:10:44 10° NW 21:13:17 35° WSW 21:14:36 21° S
IRIDIUM 104 4.4 21:09:30 15° S 21:13:53 84° W 21:19:09 10° N
Cosmos 1452 Rocket 3.7 21:09:38 10° NNW 21:14:51 62° WSW 21:19:02 16° S
Cosmos 1110 Rocket 4.2 21:12:23 10° NNW 21:17:41 73° ENE 21:22:56 10° SE
Lacrosse 5 rocket 1.3 21:15:24 10° WNW 21:19:23 56° SSW 21:23:09 10° SE
Cosmos 1515 Rocket 3.6 21:15:20 10° NNW 21:19:41 73° W 21:23:00 17° S
Cosmos 405 2.9 21:16:17 10° NNW 21:19:52 89° E 21:22:23 18° SSE
IRIDIUM 114 4.5 21:18:38 15° SSW 21:23:03 73° W 21:28:19 10° N
CREW DRAGON DEMO-1 DEB 3.7 21:21:24 13° SW 21:23:38 28° SSE 21:26:20 10° ESE
Cosmos 1328 Rocket 4.3 21:21:45 10° NNW 21:25:49 42° W 21:29:03 15° SSW
Cosmos 389 Rocket 4.4 21:24:02 10° N 21:27:00 24° ENE 21:29:55 10° ESE
Cosmos 1766 Rocket 4.0 21:24:24 13° SSW 21:28:13 58° WNW 21:32:37 10° N
Okean 3 Rocket 4.4 21:30:13 11° SW 21:34:18 47° WNW 21:38:36 10° N
Meteor 2-3 Rocket 3.8 21:30:38 15° SSW 21:35:27 90° WNW 21:41:14 10° NNE
Resurs 1-4 Rocket 4.3 21:34:25 10° NE 21:37:23 15° E 21:40:20 10° ESE
EP 3 3.5 21:37:16 19° WSW 21:38:32 78° NW 21:40:37 10° NE
Cosmos 2218 Rocket 4.2 21:32:57 13° SSW 21:38:42 72° WNW 21:45:01 10° N
Cosmos 2228 Rocket 3.2 21:35:44 10° NNW 21:40:21 81° W 21:43:57 16° S
Meteor 2-6 Rocket 4.2 21:36:11 10° NNW 21:41:44 87° ENE 21:46:27 14° SSE
Meteor 1-10 Rocket 4.3 21:37:12 10° NNW 21:42:50 77° ENE 21:47:53 13° SSE
Cosmos 2366 rocket 4.2 21:37:17 13° SSW 21:43:02 70° WNW 21:49:24 10° N
Cosmos 1340 3.0 21:40:48 15° SSW 21:43:48 59° WNW 21:47:34 10° N
Cosmos 1825 4.1 21:40:49 10° WSW 21:43:55 24° WNW 21:47:04 10° N
Cosmos 2369 Rocket 2.4 21:41:20 10° NW 21:46:50 58° WSW 21:51:34 14° SSE
CZ-4 R/B 4.2 21:44:55 10° NNE 21:49:31 55° ESE 21:53:14 16° S
Cosmos 2123 Rocket 4.3 21:43:53 10° N 21:50:06 67° ENE 21:56:08 10° SSE
Cosmos 1821 Rocket 4.1 21:46:19 15° S 21:51:27 69° E 21:57:31 10° NNE
Cosmos 304 Rocket 4.4 21:48:28 10° NW 21:53:02 43° WSW 21:56:33 16° S
COSMOS 2455 3.5 21:48:42 10° NW 21:54:14 38° WSW 21:58:41 15° S
Cosmos 1743 Rocket 3.5 21:52:31 17° SSW 21:55:53 87° W 22:00:17 10° NNE
Sich 1 4.0 21:52:56 13° SSE 21:56:21 39° E 22:00:25 10° NNE
Cosmos 1656 Rocket 3.6 21:52:02 10° NW 21:57:29 82° WSW 22:02:55 10° SSE
ATLAS 2AS CENTAUR R/B 4.5 21:53:49 10° WNW 21:58:13 17° WSW 22:02:26 10° SW
Helios 1A 4.1 21:57:31 15° SSW 22:00:23 32° W 22:04:09 10° NNW
USA 215 3.3 21:54:50 10° ENE 22:01:27 87° N 22:08:02 10° W
Genesis I 4.3 22:03:47 10° WSW 22:07:33 44° NNW 22:11:19 10° NE
Cosmos 2237 Rocket 3.6 22:03:56 10° WSW 22:09:12 37° NW 22:14:30 10° NNE
CRYOSAT 2 4.4 22:05:38 10° N 22:10:32 85° W 22:14:33 15° S
CZ-2D R/B 3.8 22:06:24 10° NE 22:10:42 24° E 22:15:01 10° SE
Meteor 1-27 Rocket 3.8 22:06:59 10° NNW 22:12:36 82° ENE 22:18:10 11° SSE
Cosmos 1812 2.7 22:09:25 10° NNW 22:13:18 77° W 22:16:21 16° S
Cosmos 1782 4.1 22:11:18 10° NNW 22:14:43 28° W 22:17:28 14° SW
USA 32 4.2 22:11:10 14° S 22:15:42 70° E 22:20:58 10° N
Cosmos 2344 3.9 22:09:22 10° WSW 22:16:52 78° NNW 22:25:52 10° NE
Helios 1B rocket 2.4 22:16:19 10° NNE 22:20:28 84° ESE 22:23:47 16° SSW
CZ-4C R/B 3.2 22:14:23 10° NW 22:21:07 51° SW 22:28:53 10° SSE
PSLV R/B 3.5 22:17:44 10° NNE 22:21:59 82° WNW 22:25:30 15° SSW
ATLAS 5 CENTAUR R/B 1.8 22:21:26 10° WNW 22:23:47 72° NNE 22:29:06 10° ESE
Cosmos 1346 Rocket 3.7 22:20:27 12° SW 22:23:51 39° WNW 22:27:35 10° N
Cosmos 494 Rocket 4.1 22:20:25 15° SSW 22:24:47 71° ESE 22:29:56 10° NNE
SL-16 R/B 2.9 22:19:20 10° SSE 22:25:31 69° ENE 22:31:46 10° NNW
Cosmos 1666 Rocket 4.1 22:24:14 13° S 22:28:01 53° E 22:32:18 10° NNE
Cosmos 1500 Rocket 4.2 22:24:24 13° SW 22:28:09 49° WNW 22:32:25 10° N
Cosmos 292 Rocket 3.7 22:27:20 10° NNW 22:32:11 79° WSW 22:36:57 10° SSE
CZ-4C R/B 3.8 22:30:33 10° SSE 22:34:29 60° ENE 22:38:14 10° N
NOSS 2-1 (C) 4.4 22:30:13 10° NW 22:34:37 67° NNE 22:40:42 10° ESE
Cosmos 1633 4.0 22:32:54 10° SW 22:36:02 28° WNW 22:39:14 10° N
RESURS DK-1 3.6 22:35:03 10° NW 22:38:30 26° WSW 22:41:05 14° SSW
Cosmos 1934 Rocket 4.0 22:33:30 13° S 22:39:04 88° ESE 22:45:24 10° NNE
NOSS 2-1 (D) 4.3 22:34:52 10° NW 22:39:20 71° NNE 22:45:33 10° ESE
Cosmos 1943 Rocket 3.7 22:37:46 10° NW 22:41:48 20° W 22:45:29 11° SW
Cosmos 1441 Rocket 3.7 22:38:42 13° S 22:42:07 57° E 22:46:02 10° NNE
ATLAS 5 CENTAUR R/B 3.7 22:39:04 10° WNW 22:43:39 38° N 22:48:58 10° ENE
Cosmos 1805 Rocket 3.8 22:41:36 14° SSW 22:45:17 62° WNW 22:49:38 10° N
Cosmos 1943 3.3 22:41:16 13° SSW 22:46:23 77° ESE 22:52:05 10° NE
Cosmos 44 4.0 22:42:56 10° WSW 22:47:11 47° NNW 22:51:37 10° NE
Meteor 1-4 Rocket 3.0 22:43:43 10° N 22:47:29 63° ENE 22:51:11 10° SSE
Cosmos 1048 Rocket 4.4 22:42:51 10° SW 22:48:06 59° WNW 22:53:18 10° NNE
Gbstr 26 Del rocket 3.3 22:44:43 10° SW 22:48:27 42° SSE 22:52:48 10° E
Meteor 1-29 3.0 22:47:36 10° N 22:50:58 69° WNW 22:53:46 14° SSW
Iridium 4 Rocket 3.9 22:45:51 10° S 22:51:38 78° E 22:57:11 10° N
SL-16 R/B 3.4 22:48:50 10° WSW 22:54:10 40° NW 22:59:32 10° NNE
Cosmos 1862 4.0 22:53:29 12° SW 22:56:55 45° WNW 23:00:47 10° N
Lacrosse 5 rocket 2.8 22:55:25 10° W 22:57:49 16° SW 22:59:14 13° SSW
CREW DRAGON DEMO-1 DEB 3.4 22:56:08 10° WSW 22:59:01 36° S 23:01:52 10° ESE
Cosmos 1992 Rocket 4.0 22:54:27 10° NNW 22:59:45 86° WSW 23:05:00 10° SSE
Cosmos 389 Rocket 3.3 22:58:33 10° NNW 23:01:49 36° W 23:04:33 13° SSW
SeaSat 1 3.0 22:58:43 10° NE 23:03:32 49° ESE 23:08:09 11° S
ISS -2.3 23:04:52 13° SSW 23:06:57 22° SSE 23:09:38 10° ESE
MOZ.5/SAFIR/RUBIN 5/SL-8 4.1 23:03:38 10° S 23:08:17 55° W 23:13:00 10° NNW
Cosmos 1238 Rocket 3.7 23:03:30 10° S 23:09:27 79° E 23:14:27 10° NNE
Cosmos 2242 Rocket 3.8 23:05:14 10° N 23:09:51 81° ENE 23:14:26 10° SSE
UNK 3.8 23:05:44 10° S 23:10:19 69° WSW 23:14:57 10° NNW
Cosmos 1269 Rocket 4.1 23:05:52 11° SSW 23:10:55 83° WNW 23:16:16 10° NNE
Cosmos 405 Rocket 4.5 23:13:19 10° SSE 23:16:36 27° E 23:19:51 10° NE
Resurs 1-4 Rocket 2.3 23:12:50 10° NNE 23:18:12 71° ESE 23:23:31 10° S
Cosmos 1470 Rocket 3.7 23:16:17 10° S 23:20:46 81° E 23:25:17 10° NNE
Okean 1 3.3 23:17:58 10° NNW 23:21:58 89° E 23:25:56 10° S
ADEOS II 3.2 23:22:36 10° NNE 23:27:34 40° E 23:32:30 10° SSE
Cosmos 1862 Rocket 4.2 23:24:24 10° NNW 23:28:33 41° W 23:32:44 10° SSW
Cosmos 1603 4.2 23:23:19 10° SW 23:28:55 57° NW 23:34:37 10° NNE
Cosmos 2369 Rocket 4.1 23:27:25 10° WNW 23:29:42 13° W 23:31:59 10° WSW
NOSS 2-1 (E) 4.1 23:25:13 10° NW 23:29:59 76° SW 23:36:42 10° SE
Cosmos 1633 Rocket 3.5 23:27:35 10° SSW 23:31:52 52° WNW 23:36:13 10° N
Cosmos 2100 Rocket 4.4 23:27:00 10° S 23:33:16 67° E 23:39:28 10° NNE
Sich 1 4.2 23:30:15 10° SW 23:34:07 32° WNW 23:38:04 10° N
SL-4 R/B 1.1 23:32:13 11° SSW 23:35:00 68° SE 23:37:47 10° NE
IRS-1D 4.1 23:30:16 10° NNE 23:35:10 51° E 23:40:00 10° S
SL-08 R/B 3.9 23:32:19 10° SSE 23:36:59 63° ENE 23:41:45 10° NNW
Cosmos 44 Rocket 3.4 23:32:43 10° SW 23:37:26 78° NW 23:42:17 10° NE
Lacrosse 5 3.2 23:36:49 10° SSW 23:41:04 27° SE 23:45:18 10° ENE
Meteor 1-28 Rocket 4.2 23:39:52 10° SE 23:43:27 49° ENE 23:47:04 10° N
USA 215 3.4 23:37:54 10° E 23:44:30 85° N 23:51:06 10° WNW
COBE Rocket 4.1 23:39:34 10° SSE 23:44:40 84° ENE 23:49:39 10° NNW
AQUA 3.9 23:41:13 10° NNE 23:46:02 84° ESE 23:50:48 10° SSW
Okean 1-7 3.1 23:42:16 10° NNW 23:46:41 73° W 23:51:04 10° S
Cosmos 1656 3.7 23:43:22 10° NW 23:48:52 86° NE 23:54:19 10° SE
Cosmos 220 Rocket 4.3 23:45:58 10° NNW 23:50:18 74° ENE 23:54:33 10° SE
Cosmos 1500 4.4 23:46:56 10° SSE 23:50:31 38° E 23:54:05 10° NNE
CZ-2D R/B 2.3 23:46:00 10° NNE 23:51:17 72° WNW 23:56:36 10° SSW
